Location: Doschendorf
(50.0069°N, 11.0602°E)
Time: 13:45:52
(UTC+00:00)

Cosmos 1538 Rocket - Pass Details

Date: 17 November 2019
Orbit: 751 x 793 km, 74.0° (Epoch: 06 December)

Event Time Altitude Azimuth Distance (km) Brightness Sun altitude
Rises 16:26:41 0° 192° (SSW) 3,227 7.7 -9.2°
Reaches altitude 10° 16:29:03 10° 190° (S) 2,311 6.9 -9.6°
Maximum altitude 16:34:15 66° 109° (ESE) 853 4.0 -10.4°
Drops below altitude 10° 16:39:33 10° 29° (NNE) 2,354 6.1 -11.2°
Enters shadow 16:41:04 - 27° (NNE) 2,938 6.6 -11.4°
